• Em Portugal
  • Lista de países
  • Para 7 dias
  • Temperatura da água
  • Mapas de satélite
  • Mapa do tempo
  • Widgets de tempo
  • user-avatar
    Iniciar Sessão

    Previsão horária em Krzywe

    Hoje, 21 Agosto, Terça-feira

    Tempo Temperatura Precipitação Vento Pressão Humidade
    00:00 +18°C° 0 mm 4 m/s 746 mmHg 88%
    01:00 +18°C° 0 mm 4 m/s 746 mmHg 89%
    02:00 +17°C° 0 mm 4 m/s 746 mmHg 89%
    03:00 +15°C° 0 mm 4 m/s 746 mmHg 89%
    04:00 +15°C° 0 mm 4 m/s 746 mmHg 89%
    05:00 +14°C° 0 mm 4 m/s 746 mmHg 90%
    06:00 +15°C° 0 mm 4 m/s 747 mmHg 86%
    07:00 +16°C° 0 mm 5 m/s 747 mmHg 82%
    08:00 +17°C° 0 mm 5 m/s 747 mmHg 79%
    09:00 +19°C° 0,1 mm 5 m/s 748 mmHg 73%
    10:00 +20°C° 0,1 mm 5 m/s 748 mmHg 67%
    11:00 +21°C° 0,1 mm 5 m/s 749 mmHg 61%
    12:00 +21°C° 0,1 mm 5 m/s 749 mmHg 59%
    13:00 +22°C° 0,1 mm 5 m/s 749 mmHg 57%
    14:00 +22°C° 0,1 mm 5 m/s 749 mmHg 54%
    15:00 +22°C° 0,1 mm 5 m/s 749 mmHg 56%
    16:00 +21°C° 0,1 mm 5 m/s 749 mmHg 58%
    17:00 +21°C° 0,1 mm 5 m/s 750 mmHg 60%
    18:00 +19°C° 0 mm 4 m/s 750 mmHg 66%
    19:00 +17°C° 0 mm 4 m/s 750 mmHg 72%
    20:00 +16°C° 0 mm 3 m/s 751 mmHg 77%
    21:00 +14°C° 0 mm 3 m/s 751 mmHg 80%
    22:00 +13°C° 0 mm 3 m/s 752 mmHg 84%
    23:00 +12°C° 0 mm 3 m/s 752 mmHg 87%

    Amanhã, 22 Agosto, Quarta-feira

    Tempo Temperatura Precipitação Vento Pressão Humidade
    00:00 +12°C° 0 mm 2 m/s 753 mmHg 88%
    01:00 +10°C° 0 mm 2 m/s 753 mmHg 90%
    02:00 +10°C° 0 mm 2 m/s 753 mmHg 92%
    03:00 +10°C° 0 mm 2 m/s 753 mmHg 92%
    04:00 +10°C° 0 mm 1 m/s 754 mmHg 93%
    05:00 +10°C° 0 mm 1 m/s 754 mmHg 93%
    06:00 +12°C° 0 mm 1 m/s 754 mmHg 87%
    07:00 +13°C° 0 mm 1 m/s 754 mmHg 80%
    08:00 +15°C° 0 mm 2 m/s 755 mmHg 74%
    09:00 +16°C° 0 mm 2 m/s 755 mmHg 66%
    10:00 +18°C° 0 mm 2 m/s 755 mmHg 59%
    11:00 +19°C° 0 mm 2 m/s 755 mmHg 52%
    12:00 +20°C° 0 mm 2 m/s 755 mmHg 49%
    13:00 +21°C° 0 mm 2 m/s 754 mmHg 46%
    14:00 +23°C° 0 mm 1 m/s 754 mmHg 43%
    15:00 +22°C° 0 mm 1 m/s 754 mmHg 44%
    16:00 +22°C° 0 mm 1 m/s 754 mmHg 44%
    17:00 +22°C° 0 mm 1 m/s 753 mmHg 45%
    18:00 +19°C° 0 mm 2 m/s 753 mmHg 51%
    19:00 +18°C° 0 mm 2 m/s 753 mmHg 58%
    20:00 +16°C° 0 mm 2 m/s 753 mmHg 64%
    21:00 +15°C° 0 mm 2 m/s 753 mmHg 66%
    22:00 +13°C° 0 mm 3 m/s 753 mmHg 68%
    23:00 +13°C° 0 mm 3 m/s 753 mmHg 70%

    Depois de amanhã, 23 Agosto, Quinta-feira

    Tempo Temperatura Precipitação Vento Pressão Humidade
    00:00 +12°C° 0 mm 3 m/s 753 mmHg 71%
    01:00 +12°C° 0 mm 3 m/s 753 mmHg 71%
    02:00 +12°C° 0 mm 3 m/s 753 mmHg 71%
    03:00 +11°C° 0 mm 3 m/s 753 mmHg 72%
    04:00 +11°C° 0 mm 3 m/s 753 mmHg 73%
    05:00 +11°C° 0 mm 3 m/s 752 mmHg 74%
    06:00 +12°C° 0 mm 3 m/s 752 mmHg 71%
    07:00 +14°C° 0 mm 4 m/s 752 mmHg 68%
    08:00 +15°C° 0 mm 4 m/s 752 mmHg 65%
    09:00 +18°C° 0 mm 4 m/s 752 mmHg 62%
    10:00 +20°C° 0 mm 4 m/s 751 mmHg 58%
    11:00 +22°C° 0 mm 4 m/s 751 mmHg 54%
    12:00 +23°C° 0 mm 4 m/s 751 mmHg 53%
    13:00 +23°C° 0 mm 4 m/s 750 mmHg 52%
    14:00 +25°C° 0 mm 4 m/s 750 mmHg 51%
    15:00 +25°C° 0 mm 4 m/s 750 mmHg 53%
    16:00 +25°C° 0 mm 3 m/s 749 mmHg 55%
    17:00 +25°C° 0 mm 3 m/s 749 mmHg 57%
    18:00 +22°C° 0 mm 3 m/s 749 mmHg 61%
    19:00 +21°C° 0 mm 3 m/s 748 mmHg 66%
    20:00 +20°C° 0 mm 3 m/s 748 mmHg 71%
    21:00 +19°C° 0 mm 3 m/s 748 mmHg 74%
    22:00 +19°C° 0 mm 3 m/s 748 mmHg 77%
    23:00 +18°C° 0 mm 3 m/s 748 mmHg 80%

    24 Agosto, Sexta-feira

    Tempo Temperatura Precipitação Vento Pressão Humidade
    00:00 +18°C° 0 mm 3 m/s 748 mmHg 83%
    01:00 +17°C° 0 mm 3 m/s 747 mmHg 86%
    02:00 +17°C° 0 mm 3 m/s 747 mmHg 89%
    03:00 +16°C° 0 mm 3 m/s 747 mmHg 90%
    04:00 +16°C° 0 mm 3 m/s 746 mmHg 92%
    05:00 +16°C° 0 mm 3 m/s 746 mmHg 93%
    06:00 +17°C° 0 mm 3 m/s 746 mmHg 88%
    07:00 +18°C° 0 mm 4 m/s 746 mmHg 83%
    08:00 +19°C° 0 mm 4 m/s 745 mmHg 79%
    09:00 +21°C° 0 mm 4 m/s 745 mmHg 73%
    10:00 +23°C° 0 mm 4 m/s 745 mmHg 67%
    11:00 +26°C° 0 mm 4 m/s 745 mmHg 61%
    12:00 +27°C° 0,1 mm 4 m/s 744 mmHg 60%
    13:00 +28°C° 0,1 mm 4 m/s 744 mmHg 58%
    14:00 +29°C° 0,1 mm 4 m/s 743 mmHg 56%
    15:00 +28°C° 1,2 mm 4 m/s 743 mmHg 61%
    16:00 +27°C° 1,2 mm 4 m/s 742 mmHg 65%
    17:00 +26°C° 1,2 mm 3 m/s 742 mmHg 70%
    18:00 +25°C° 2,2 mm 3 m/s 742 mmHg 76%
    19:00 +22°C° 2,2 mm 3 m/s 742 mmHg 81%
    20:00 +21°C° 2,2 mm 3 m/s 741 mmHg 86%
    21:00 +20°C° 2,1 mm 2 m/s 742 mmHg 90%
    22:00 +20°C° 2,1 mm 2 m/s 742 mmHg 93%
    23:00 +19°C° 2,1 mm 2 m/s 742 mmHg 96%

    25 Agosto, Sábado

    Tempo Temperatura Precipitação Vento Pressão Humidade
    00:00 +18°C° 0,7 mm 3 m/s 742 mmHg 96%
    01:00 +18°C° 0,7 mm 3 m/s 742 mmHg 96%
    02:00 +17°C° 0,7 mm 4 m/s 743 mmHg 95%
    03:00 +17°C° 0,1 mm 4 m/s 743 mmHg 95%
    04:00 +15°C° 0,1 mm 4 m/s 743 mmHg 95%
    05:00 +14°C° 0,1 mm 3 m/s 743 mmHg 94%
    06:00 +16°C° 0 mm 3 m/s 744 mmHg 92%
    07:00 +16°C° 0 mm 3 m/s 744 mmHg 89%
    08:00 +16°C° 0 mm 3 m/s 744 mmHg 86%
    09:00 +16°C° 0 mm 3 m/s 745 mmHg 83%
    10:00 +17°C° 0 mm 3 m/s 745 mmHg 80%
    11:00 +17°C° 0 mm 3 m/s 746 mmHg 77%
    12:00 +18°C° 0 mm 3 m/s 746 mmHg 71%
    13:00 +19°C° 0 mm 3 m/s 746 mmHg 65%
    14:00 +19°C° 0 mm 3 m/s 746 mmHg 58%
    15:00 +20°C° 0 mm 2 m/s 746 mmHg 57%
    16:00 +20°C° 0 mm 2 m/s 746 mmHg 56%
    17:00 +20°C° 0 mm 2 m/s 746 mmHg 55%
    18:00 +19°C° 0 mm 1 m/s 746 mmHg 61%
    19:00 +16°C° 0 mm 1 m/s 746 mmHg 66%
    20:00 +14°C° 0 mm 0 m/s 746 mmHg 71%
    21:00 +14°C° 0 mm 1 m/s 746 mmHg 71%
    22:00 +14°C° 0 mm 1 m/s 746 mmHg 72%
    23:00 +14°C° 0 mm 1 m/s 746 mmHg 72%

    26 Agosto, Domingo

    Tempo Temperatura Precipitação Vento Pressão Humidade
    00:00 +14°C° 0 mm 1 m/s 747 mmHg 73%
    01:00 +14°C° 0 mm 1 m/s 747 mmHg 73%
    02:00 +14°C° 0 mm 2 m/s 747 mmHg 74%
    03:00 +13°C° 0 mm 2 m/s 746 mmHg 76%
    04:00 +13°C° 0 mm 2 m/s 746 mmHg 78%
    05:00 +13°C° 0 mm 2 m/s 746 mmHg 80%
    06:00 +13°C° 0,2 mm 2 m/s 746 mmHg 82%
    07:00 +14°C° 0,2 mm 2 m/s 746 mmHg 84%
    08:00 +14°C° 0,2 mm 2 m/s 746 mmHg 86%
    09:00 +13°C° 0,3 mm 3 m/s 745 mmHg 87%
    10:00 +13°C° 0,3 mm 3 m/s 745 mmHg 88%
    11:00 +14°C° 0,3 mm 3 m/s 745 mmHg 89%
    12:00 +14°C° 0,8 mm 4 m/s 744 mmHg 90%
    13:00 +14°C° 0,8 mm 4 m/s 744 mmHg 90%
    14:00 +14°C° 0,8 mm 5 m/s 743 mmHg 91%
    15:00 +14°C° 0,4 mm 4 m/s 743 mmHg 92%
    16:00 +15°C° 0,4 mm 4 m/s 742 mmHg 92%
    17:00 +15°C° 0,4 mm 4 m/s 741 mmHg 92%
    18:00 +15°C° 1,4 mm 4 m/s 741 mmHg 93%
    19:00 +16°C° 1,4 mm 3 m/s 741 mmHg 95%
    20:00 +16°C° 1,4 mm 3 m/s 740 mmHg 97%
    21:00 +16°C° 0,6 mm 3 m/s 740 mmHg 96%
    22:00 +16°C° 0,6 mm 2 m/s 740 mmHg 96%
    23:00 +16°C° 0,6 mm 2 m/s 740 mmHg 96%
    Mostrar mais